,,Stat5,,Stat1,,Stat2,,Stat3,,Stat4,,Wind1,,Wind1,
time,status,PA1M_AVG,status,PR1M_SUM,status,RH1M_AVG,status,SR1M_AVG,status,TA1M_AVG,status,W1dAve1m,status,W1sAve1m,
2003-04-06, 00:00:00,VALID,917.738,VALID,0,VALID,98.2836,VALID,0.0509425,VALID,19.463,VALID,89,VALID,0.694444,
2003-04-06, 00:01:00,VALID,917.732,VALID,0,VALID,98.1399,VALID,0,VALID,19.4173,VALID,84,VALID,0.89363,
2003-04-06, 00:02:00,VALID,917.737,VALID,0,VALID,98.3662,VALID,0.0169808,VALID,19.4501,VALID,85,VALID,0.939303,
2003-04-06, 00:03:00,VALID,917.717,VALID,0,VALID,98.3014,VALID,0,VALID,19.4829,VALID,88,VALID,0.929476,
2003-04-06, 00:04:00,VALID,917.735,VALID,0,VALID,98.3929,VALID,0.0339617,VALID,19.4859,VALID,87,VALID,0.907652,
2003-04-06, 00:05:00,VALID,917.707,VALID,0,VALID,98.3904,VALID,0.0339617,VALID,19.4988,VALID,93,VALID,0.85,
2003-04-06, 00:06:00,VALID,917.733,VALID,0,VALID,98.2543,VALID,0.0339617,VALID,19.4886,VALID,79,VALID,0.748355,
2003-04-06, 00:07:00,VALID,917.703,VALID,0,VALID,97.9886,VALID,0,VALID,19.463,VALID,78,VALID,0.654018,
2003-04-06, 00:08:00,VALID,917.694,VALID,0,VALID,97.5588,VALID,-0.0169808,VALID,19.3956,VALID,74,VALID,0.520616,
2003-04-06, 00:09:00,VALID,917.686,VALID,0,VALID,96.9815,VALID,-0.0169808,VALID,19.3118,VALID,72,VALID,0.290064,
2003-04-06, 00:10:00,VALID,917.654,VALID,0,VALID,96.9853,VALID,-0.0169808,VALID,19.2313,VALID,74,VALID,0.537946,
2003-04-06, 00:11:00,VALID,917.637,VALID,0,VALID,97.6173,VALID,-0.0169808,VALID,19.2504,VALID,87,VALID,0.437723,
2003-04-06, 00:12:00,VALID,917.626,VALID,0,VALID,97.8284,VALID,-0.0509425,VALID,19.2897,VALID,111,VALID,0.28726,
2003-04-06, 00:13:00,VALID,917.628,VALID,0,VALID,97.9873,VALID,-0.0679233,VALID,19.3285,VALID,115,VALID,0.325446,
2003-04-06, 00:14:00,VALID,917.646,VALID,0,VALID,98.0255,VALID,-0.0339617,VALID,19.361,VALID,117,VALID,0.297526,
2003-04-06, 00:15:00,VALID,917.639,VALID,0,VALID,98.1068,VALID,-0.0169808,VALID,19.3576,VALID,152,VALID,0.690104,
2003-04-06, 00:16:00,VALID,917.639,VALID,0,VALID,98.2302,VALID,-0.0509425,VALID,19.3772,VALID,142,VALID,0.395089,
2003-04-06, 00:17:00,VALID,917.658,VALID,0,VALID,98.1501,VALID,-0.0509425,VALID,19.3573,VALID,127,VALID,0.117634,
2003-04-06, 00:18:00,VALID,917.667,VALID,0,VALID,97.7902,VALID,-0.0169808,VALID,19.2897,VALID,127,VALID,0.000600962,
2003-04-06, 00:19:00,VALID,917.66,VALID,0,VALID,97.4901,VALID,-0.0339617,VALID,19.2054,VALID,127,VALID,0.000223214,
2003-04-06, 00:20:00,VALID,917.639,VALID,0,VALID,96.9827,VALID,-0.0169808,VALID,19.0861,VALID,105,VALID,0.207248,
2003-04-06, 00:21:00,VALID,917.617,VALID,0,VALID,97.1391,VALID,-0.0679233,VALID,18.9983,VALID,88,VALID,0.455128,
2003-04-06, 00:22:00,VALID,917.602,VALID,0,VALID,97.499,VALID,-0.0509425,VALID,19.0053,VALID,88,VALID,0.250446,
2003-04-06, 00:23:00,VALID,917.584,VALID,0,VALID,97.6999,VALID,0.0509425,VALID,19.0168,VALID,88,VALID,0.222768,
2003-04-06, 00:24:00,VALID,917.56,VALID,0,VALID,97.7457,VALID,0.0679233,VALID,19.017,VALID,88,VALID,0.229968,
2003-04-06, 00:25:00,VALID,917.544,VALID,0,VALID,97.9962,VALID,0,VALID,19.0463,VALID,100,VALID,0.522768,
2003-04-06, 00:26:00,VALID,917.513,VALID,0,VALID,98.2327,VALID,0.0679233,VALID,19.0719,VALID,118,VALID,0.664931,
2003-04-06, 00:27:00,VALID,917.508,VALID,0,VALID,98.4502,VALID,0.0339617,VALID,19.101,VALID,126,VALID,0.743389,
2003-04-06, 00:28:00,VALID,917.503,VALID,0,VALID,98.941,VALID,0.0509425,VALID,19.1883,VALID,136,VALID,0.739443,
2003-04-06, 00:29:00,VALID,917.499,VALID,0,VALID,99.03,VALID,0.0509425,VALID,19.2273,VALID,138,VALID,0.780804,
2003-04-06, 00:30:00,VALID,917.485,VALID,0,VALID,99.086,VALID,0.101885,VALID,19.2728,VALID,143,VALID,0.942308,
2003-04-06, 00:31:00,VALID,917.474,VALID,0,VALID,99.1852,VALID,0.0849042,VALID,19.3277,VALID,118,VALID,0.690625,
2003-04-06, 00:32:00,VALID,917.462,VALID,0,VALID,99.1902,VALID,0.0679233,VALID,19.3464,VALID,134,VALID,0.606554,
2003-04-06, 00:33:00,VALID,917.438,VALID,0,VALID,99.175,VALID,0.0509425,VALID,19.3566,VALID,112,VALID,0.407252,
2003-04-06, 00:34:00,VALID,917.416,VALID,0,VALID,99.1305,VALID,0.0849042,VALID,19.3633,VALID,116,VALID,0.469643,
2003-04-06, 00:35:00,VALID,917.399,VALID,0,VALID,99.1216,VALID,0.101885,VALID,19.3407,VALID,98,VALID,0.247321,
2003-04-06, 00:36:00,VALID,917.38,VALID,0,VALID,99.1775,VALID,0.0509425,VALID,19.3404,VALID,125,VALID,0.347356,
2003-04-06, 00:37:00,VALID,917.354,VALID,0,VALID,99.2017,VALID,0.101885,VALID,19.3464,VALID,116,VALID,0.541071,
2003-04-06, 00:38:00,VALID,917.359,VALID,0,VALID,99.2297,VALID,0.0169808,VALID,19.3506,VALID,124,VALID,0.488498,
2003-04-06, 00:39:00,VALID,917.338,VALID,0,VALID,99.2195,VALID,-0.0339617,VALID,19.3583,VALID,125,VALID,0.460938,
2003-04-06, 00:40:00,VALID,917.323,VALID,0,VALID,99.264,VALID,-0.0509425,VALID,19.3384,VALID,125,VALID,0.573884,
2003-04-06, 00:41:00,VALID,917.31,VALID,0,VALID,99.2615,VALID,-0.0849042,VALID,19.3416,VALID,129,VALID,0.574554,
2003-04-06, 00:42:00,VALID,917.316,VALID,0,VALID,99.3098,VALID,-0.0849042,VALID,19.3252,VALID,120,VALID,0.547676,
2003-04-06, 00:43:00,VALID,917.326,VALID,0,VALID,99.2818,VALID,-0.101885,VALID,19.3223,VALID,98,VALID,0.674554,
2003-04-06, 00:44:00,VALID,917.305,VALID,0,VALID,99.2754,VALID,-0.101885,VALID,19.3163,VALID,102,VALID,0.778646,
2003-04-06, 00:45:00,VALID,917.285,VALID,0,VALID,99.2691,VALID,-0.0679233,VALID,19.2835,VALID,104,VALID,0.86258,
2003-04-06, 00:46:00,VALID,917.272,VALID,0,VALID,99.2653,VALID,-0.0169808,VALID,19.277,VALID,115,VALID,0.728125,
2003-04-06, 00:47:00,VALID,917.26,VALID,0,VALID,99.2386,VALID,-0.0679233,VALID,19.2678,VALID,131,VALID,0.623884,
2003-04-06, 00:48:00,VALID,917.222,VALID,0,VALID,99.2297,VALID,-0.0679233,VALID,19.2549,VALID,127,VALID,0.655649,
2003-04-06, 00:49:00,VALID,917.201,VALID,0,VALID,99.2691,VALID,-0.0679233,VALID,19.2516,VALID,122,VALID,0.701339,
2003-04-06, 00:50:00,VALID,917.177,VALID,0,VALID,99.3225,VALID,-0.0679233,VALID,19.2643,VALID,124,VALID,0.843533,
2003-04-06, 00:51:00,VALID,917.162,VALID,0,VALID,99.3339,VALID,-0.0509425,VALID,19.2772,VALID,125,VALID,0.759215,
2003-04-06, 00:52:00,VALID,917.158,VALID,0,VALID,99.339,VALID,-0.0339617,VALID,19.2867,VALID,128,VALID,0.682813,
2003-04-06, 00:53:00,VALID,917.141,VALID,0,VALID,99.2894,VALID,-0.0509425,VALID,19.2966,VALID,122,VALID,0.728571,
2003-04-06, 00:54:00,VALID,917.134,VALID,0,VALID,99.2258,VALID,-0.0679233,VALID,19.2837,VALID,119,VALID,0.536859,
2003-04-06, 00:55:00,VALID,917.147,VALID,0,VALID,99.1788,VALID,-0.101885,VALID,19.2772,VALID,123,VALID,0.715179,
2003-04-06, 00:56:00,VALID,917.145,VALID,0,VALID,99.1788,VALID,-0.0679233,VALID,19.284,VALID,130,VALID,0.670573,
2003-04-06, 00:57:00,VALID,917.147,VALID,0,VALID,99.1254,VALID,-0.0849042,VALID,19.2671,VALID,107,VALID,0.46274,
2003-04-06, 00:58:00,VALID,917.15,VALID,0,VALID,99.0694,VALID,-0.0679233,VALID,19.2772,VALID,108,VALID,0.663839,
2003-04-06, 00:59:00,VALID,917.149,VALID,0,VALID,99.0478,VALID,-0.0849042,VALID,19.2713,VALID,106,VALID,0.70067,
2003-04-06, 01:00:00,VALID,917.145,VALID,0,VALID,99.0923,VALID,-0.0679233,VALID,19.274,VALID,110,VALID,0.904447,
2003-04-06, 01:01:00,VALID,917.148,VALID,0,VALID,99.0694,VALID,-0.0679233,VALID,19.284,VALID,110,VALID,0.867188,
2003-04-06, 01:02:00,VALID,917.158,VALID,0,VALID,99.0682,VALID,-0.0679233,VALID,19.2869,VALID,108,VALID,0.818142,
2003-04-06, 01:03:00,VALID,917.16,VALID,0,VALID,99.0084,VALID,-0.0849042,VALID,19.2743,VALID,102,VALID,0.85597,
2003-04-06, 01:04:00,VALID,917.157,VALID,0,VALID,99.0059,VALID,-0.0679233,VALID,19.2579,VALID,108,VALID,0.802679,
2003-04-06, 01:05:00,VALID,917.154,VALID,0,VALID,99.0351,VALID,-0.0849042,VALID,19.2449,VALID,107,VALID,0.923437,
2003-04-06, 01:06:00,VALID,917.155,VALID,0,VALID,99.105,VALID,-0.0849042,VALID,19.2521,VALID,119,VALID,0.951522,
2003-04-06, 01:07:00,VALID,917.158,VALID,0,VALID,99.1521,VALID,-0.0849042,VALID,19.2484,VALID,111,VALID,0.710938,
2003-04-06, 01:08:00,VALID,917.166,VALID,0,VALID,99.2093,VALID,-0.0339617,VALID,19.2273,VALID,139,VALID,0.542752,
2003-04-06, 01:09:00,VALID,917.156,VALID,0,VALID,99.2411,VALID,-0.0169808,VALID,19.2534,VALID,143,VALID,0.836739,
2003-04-06, 01:10:00,VALID,917.156,VALID,0,VALID,99.2691,VALID,0.0169808,VALID,19.2469,VALID,142,VALID,0.970312,
2003-04-06, 01:11:00,VALID,917.147,VALID,0,VALID,99.3187,VALID,0,VALID,19.2571,VALID,141,VALID,0.843527,
2003-04-06, 01:12:00,VALID,917.132,VALID,0,VALID,99.3594,VALID,0,VALID,19.2604,VALID,140,VALID,0.862981,
2003-04-06, 01:13:00,VALID,917.134,VALID,0,VALID,99.395,VALID,0,VALID,19.237,VALID,139,VALID,0.421205,
2003-04-06, 01:14:00,VALID,917.106,VALID,0,VALID,99.3988,VALID,0.0169808,VALID,19.2375,VALID,129,VALID,0.450955,
2003-04-06, 01:15:00,VALID,917.093,VALID,0,VALID,99.4166,VALID,-0.0339617,VALID,19.2276,VALID,138,VALID,0.494391,
2003-04-06, 01:16:00,VALID,917.075,VALID,0,VALID,99.4446,VALID,-0.0169808,VALID,19.2218,VALID,146,VALID,0.736607,
2003-04-06, 01:17:00,VALID,917.061,VALID,0,VALID,99.4662,VALID,-0.0169808,VALID,19.2278,VALID,143,VALID,0.559152,
2003-04-06, 01:18:00,VALID,917.037,VALID,0,VALID,99.484,VALID,0,VALID,19.2181,VALID,133,VALID,0.491587,
2003-04-06, 01:19:00,VALID,917.026,VALID,0,VALID,99.4789,VALID,-0.0169808,VALID,19.2151,VALID,131,VALID,0.582812,
2003-04-06, 01:20:00,VALID,917.023,VALID,0,VALID,99.5221,VALID,0,VALID,19.2019,VALID,129,VALID,0.576172,
2003-04-06, 01:21:00,VALID,916.997,VALID,0,VALID,99.5552,VALID,0.0169808,VALID,19.2112,VALID,130,VALID,0.530048,
2003-04-06, 01:22:00,VALID,916.984,VALID,0,VALID,99.5844,VALID,0,VALID,19.2243,VALID,141,VALID,0.51875,
2003-04-06, 01:23:00,VALID,916.969,VALID,0,VALID,99.5883,VALID,0,VALID,19.2273,VALID,129,VALID,0.888393,
2003-04-06, 01:24:00,VALID,916.951,VALID,0,VALID,99.5743,VALID,0.0169808,VALID,19.2213,VALID,139,VALID,0.847356,
2003-04-06, 01:25:00,VALID,916.937,VALID,0,VALID,99.5806,VALID,-0.0169808,VALID,19.2015,VALID,124,VALID,0.646429,
2003-04-06, 01:26:00,VALID,916.92,VALID,0,VALID,99.5984,VALID,0.0169808,VALID,19.2082,VALID,102,VALID,0.898438,
2003-04-06, 01:27:00,VALID,916.901,VALID,0,VALID,99.6111,VALID,0,VALID,19.1987,VALID,96,VALID,1.05889,
2003-04-06, 01:28:00,VALID,916.896,VALID,0,VALID,99.6175,VALID,0,VALID,19.189,VALID,104,VALID,1.19286,
2003-04-06, 01:29:00,VALID,916.875,VALID,0,VALID,99.5908,VALID,0,VALID,19.1694,VALID,94,VALID,1.05491,
2003-04-06, 01:30:00,VALID,916.845,VALID,0,VALID,99.5972,VALID,0,VALID,19.1438,VALID,93,VALID,1.00821,
2003-04-06, 01:31:00,VALID,916.834,VALID,0,VALID,99.6086,VALID,0.0169808,VALID,19.1274,VALID,92,VALID,1.0375,
2003-04-06, 01:32:00,VALID,916.828,VALID,0,VALID,99.6455,VALID,0,VALID,19.1348,VALID,93,VALID,1.01194,
2003-04-06, 01:33:00,VALID,916.811,VALID,0,VALID,99.6468,VALID,0,VALID,19.1085,VALID,79,VALID,1.10076,
2003-04-06, 01:34:00,VALID,916.8,VALID,0,VALID,99.6569,VALID,-0.0169808,VALID,19.0921,VALID,92,VALID,1.05446,
2003-04-06, 01:35:00,VALID,916.78,VALID,0,VALID,99.676,VALID,0,VALID,19.1022,VALID,90,VALID,0.939732,
2003-04-06, 01:36:00,VALID,916.779,VALID,0,VALID,99.6874,VALID,0,VALID,19.0821,VALID,93,VALID,0.674079,
2003-04-06, 01:37:00,VALID,916.751,VALID,0,VALID,99.6976,VALID,0,VALID,19.0918,VALID,94,VALID,0.942857,
2003-04-06, 01:38:00,VALID,916.722,VALID,0,VALID,99.6989,VALID,0,VALID,19.0724,VALID,87,VALID,0.504123,
2003-04-06, 01:39:00,VALID,916.705,VALID,0,VALID,99.6862,VALID,-0.0169808,VALID,19.0468,VALID,91,VALID,0.75,
2003-04-06, 01:40:00,VALID,916.67,VALID,0,VALID,99.6874,VALID,0,VALID,19.0374,VALID,88,VALID,0.684152,
2003-04-06, 01:41:00,VALID,916.664,VALID,0,VALID,99.6633,VALID,0,VALID,18.9946,VALID,91,VALID,0.473884,
2003-04-06, 01:42:00,VALID,916.633,VALID,0,VALID,99.662,VALID,-0.0169808,VALID,18.9663,VALID,89,VALID,0.607372,
2003-04-06, 01:43:00,VALID,916.599,VALID,0,VALID,99.6442,VALID,0.0339617,VALID,18.9171,VALID,77,VALID,0.56808,
2003-04-06, 01:44:00,VALID,916.596,VALID,0,VALID,99.6175,VALID,0.0169808,VALID,18.885,VALID,75,VALID,0.597439,
2003-04-06, 01:45:00,VALID,916.583,VALID,0,VALID,99.6061,VALID,0,VALID,18.8365,VALID,72,VALID,0.748798,
2003-04-06, 01:46:00,VALID,916.57,VALID,0,VALID,99.6099,VALID,0.0169808,VALID,18.8079,VALID,78,VALID,0.78192,
2003-04-06, 01:47:00,VALID,916.567,VALID,0,VALID,99.6544,VALID,0,VALID,18.8111,VALID,97,VALID,0.857813,
2003-04-06, 01:48:00,VALID,916.539,VALID,0,VALID,99.7065,VALID,0,VALID,18.843,VALID,112,VALID,1.003,
2003-04-06, 01:49:00,VALID,916.538,VALID,0,VALID,99.7052,VALID,0,VALID,18.876,VALID,122,VALID,1.16585,
2003-04-06, 01:50:00,VALID,916.523,VALID,0,VALID,99.7103,VALID,0,VALID,18.8691,VALID,113,VALID,0.638455,
2003-04-06, 01:51:00,VALID,916.509,VALID,0,VALID,99.6989,VALID,0,VALID,18.8598,VALID,137,VALID,0.538061,
2003-04-06, 01:52:00,VALID,916.482,VALID,0,VALID,99.6811,VALID,0,VALID,18.8432,VALID,126,VALID,0.46875,
2003-04-06, 01:53:00,VALID,916.455,VALID,0,VALID,99.6874,VALID,0,VALID,18.8427,VALID,121,VALID,0.441071,
2003-04-06, 01:54:00,VALID,916.437,VALID,0,VALID,99.6874,VALID,-0.0169808,VALID,18.8497,VALID,116,VALID,0.658854,
2003-04-06, 01:55:00,VALID,916.425,VALID,0,VALID,99.6696,VALID,0,VALID,18.837,VALID,118,VALID,0.921205,
2003-04-06, 01:56:00,VALID,916.409,VALID,0,VALID,99.6671,VALID,0,VALID,18.84,VALID,130,VALID,0.487847,
2003-04-06, 01:57:00,VALID,916.412,VALID,0,VALID,99.6646,VALID,0,VALID,18.8435,VALID,106,VALID,0.560697,
2003-04-06, 01:58:00,VALID,916.405,VALID,0,VALID,99.6569,VALID,0,VALID,18.8432,VALID,96,VALID,0.779688,
2003-04-06, 01:59:00,VALID,916.395,VALID,0,VALID,99.6607,VALID,0,VALID,18.8524,VALID,112,VALID,0.772321,
2003-04-06, 02:00:00,VALID,916.387,VALID,0,VALID,99.6569,VALID,0.0169808,VALID,18.8624,VALID,107,VALID,0.532652,
2003-04-06, 02:01:00,VALID,916.374,VALID,0,VALID,99.6442,VALID,0,VALID,18.8432,VALID,122,VALID,0.567411,
2003-04-06, 02:02:00,VALID,916.351,VALID,0,VALID,99.6188,VALID,0.0169808,VALID,18.8409,VALID,119,VALID,0.350694,
2003-04-06, 02:03:00,VALID,916.335,VALID,0,VALID,99.5348,VALID,0,VALID,18.7892,VALID,117,VALID,0.18109,
2003-04-06, 02:04:00,VALID,916.327,VALID,0,VALID,99.4713,VALID,0,VALID,18.7271,VALID,117,VALID,0.307366,
2003-04-06, 02:05:00,VALID,916.297,VALID,0,VALID,99.5069,VALID,0,VALID,18.7075,VALID,108,VALID,0.548564,
2003-04-06, 02:06:00,VALID,916.297,VALID,0,VALID,99.5056,VALID,0.0169808,VALID,18.7077,VALID,103,VALID,0.459535,
2003-04-06, 02:07:00,VALID,916.286,VALID,0,VALID,99.4713,VALID,0.0169808,VALID,18.701,VALID,102,VALID,0.493304,
2003-04-06, 02:08:00,VALID,916.282,VALID,0,VALID,99.4395,VALID,-0.0169808,VALID,18.7015,VALID,119,VALID,0.858724,
2003-04-06, 02:09:00,VALID,916.255,VALID,0,VALID,99.4509,VALID,-0.0169808,VALID,18.7142,VALID,127,VALID,0.796074,
2003-04-06, 02:10:00,VALID,916.232,VALID,0,VALID,99.3899,VALID,0,VALID,18.7338,VALID,127,VALID,0.751786,
2003-04-06, 02:11:00,VALID,916.233,VALID,0,VALID,99.3606,VALID,0,VALID,18.7375,VALID,123,VALID,0.779241,
2003-04-06, 02:12:00,VALID,916.213,VALID,0,VALID,99.353,VALID,0,VALID,18.7437,VALID,118,VALID,0.845954,
2003-04-06, 02:13:00,VALID,916.209,VALID,0,VALID,99.306,VALID,-0.0169808,VALID,18.7137,VALID,115,VALID,0.702455,
2003-04-06, 02:14:00,VALID,916.218,VALID,0,VALID,99.2996,VALID,0,VALID,18.7172,VALID,113,VALID,0.896701,
2003-04-06, 02:15:00,VALID,916.239,VALID,0,VALID,99.25,VALID,0,VALID,18.7054,VALID,111,VALID,0.568309,
2003-04-06, 02:16:00,VALID,916.241,VALID,0,VALID,99.2754,VALID,0,VALID,18.6985,VALID,119,VALID,0.616295,
2003-04-06, 02:17:00,VALID,916.247,VALID,0,VALID,99.292,VALID,-0.0169808,VALID,18.6851,VALID,132,VALID,0.563393,
2003-04-06, 02:18:00,VALID,916.252,VALID,0,VALID,99.3047,VALID,0,VALID,18.6754,VALID,130,VALID,0.591346,
2003-04-06, 02:19:00,VALID,916.254,VALID,0,VALID,99.3276,VALID,0,VALID,18.6853,VALID,110,VALID,0.369866,
2003-04-06, 02:20:00,VALID,916.252,VALID,0,VALID,99.3276,VALID,0,VALID,18.6726,VALID,113,VALID,0.432292,
2003-04-06, 02:21:00,VALID,916.247,VALID,0,VALID,99.3187,VALID,0.0169808,VALID,18.6565,VALID,135,VALID,0.451122,
2003-04-06, 02:22:00,VALID,916.265,VALID,0,VALID,99.2869,VALID,-0.0339617,VALID,18.65,VALID,128,VALID,0.457143,
2003-04-06, 02:23:00,VALID,916.257,VALID,0,VALID,99.2945,VALID,0,VALID,18.6175,VALID,130,VALID,0.454018,
2003-04-06, 02:24:00,VALID,916.239,VALID,0,VALID,99.3123,VALID,-0.0169808,VALID,18.6212,VALID,144,VALID,0.516426,
2003-04-06, 02:25:00,VALID,916.228,VALID,0,VALID,99.3136,VALID,0,VALID,18.6207,VALID,134,VALID,0.535268,
2003-04-06, 02:26:00,VALID,916.216,VALID,0,VALID,99.3034,VALID,0,VALID,18.6046,VALID,129,VALID,0.288845,
2003-04-06, 02:27:00,VALID,916.191,VALID,0,VALID,99.2805,VALID,0,VALID,18.5916,VALID,135,VALID,0.379407,
2003-04-06, 02:28:00,VALID,916.198,VALID,0,VALID,99.2042,VALID,0,VALID,18.5824,VALID,114,VALID,0.431473,
2003-04-06, 02:29:00,VALID,916.203,VALID,0,VALID,99.133,VALID,0.0169808,VALID,18.5402,VALID,129,VALID,0.313393,
2003-04-06, 02:30:00,VALID,916.202,VALID,0,VALID,99.0898,VALID,0,VALID,18.5138,VALID,120,VALID,0.597356,
2003-04-06, 02:31:00,VALID,916.215,VALID,0,VALID,99.0453,VALID,-0.0169808,VALID,18.5009,VALID,119,VALID,0.384821,
2003-04-06, 02:32:00,VALID,916.189,VALID,0,VALID,99.0453,VALID,0,VALID,18.5245,VALID,132,VALID,0.48329,
2003-04-06, 02:33:00,VALID,916.171,VALID,0,VALID,98.983,VALID,0,VALID,18.5275,VALID,108,VALID,0.501803,
2003-04-06, 02:34:00,VALID,916.164,VALID,0,VALID,98.7452,VALID,0.0169808,VALID,18.5016,VALID,90,VALID,0.303795,
2003-04-06, 02:35:00,VALID,916.164,VALID,0,VALID,98.5112,VALID,0,VALID,18.4301,VALID,90,VALID,0.288839,
2003-04-06, 02:36:00,VALID,916.172,VALID,0,VALID,98.4603,VALID,-0.0169808,VALID,18.3851,VALID,90,VALID,0.417468,
2003-04-06, 02:37:00,VALID,916.166,VALID,0,VALID,98.618,VALID,0,VALID,18.3917,VALID,97,VALID,0.641071,
2003-04-06, 02:38:00,VALID,916.172,VALID,0,VALID,98.8558,VALID,-0.0169808,VALID,18.437,VALID,100,VALID,0.700304,
2003-04-06, 02:39:00,VALID,916.177,VALID,0,VALID,98.9245,VALID,-0.0339617,VALID,18.4499,VALID,104,VALID,0.851362,
2003-04-06, 02:40:00,VALID,916.179,VALID,0,VALID,98.824,VALID,-0.0339617,VALID,18.4693,VALID,113,VALID,1.00335,
2003-04-06, 02:41:00,VALID,916.193,VALID,0,VALID,98.7083,VALID,-0.0339617,VALID,18.4524,VALID,112,VALID,0.880134,
2003-04-06, 02:42:00,VALID,916.193,VALID,0,VALID,98.6384,VALID,-0.0169808,VALID,18.4524,VALID,127,VALID,0.803886,
2003-04-06, 02:43:00,VALID,916.18,VALID,0,VALID,98.5494,VALID,-0.0509425,VALID,18.4596,VALID,120,VALID,0.848884,
2003-04-06, 02:44:00,VALID,916.174,VALID,0,VALID,98.4502,VALID,0,VALID,18.4497,VALID,113,VALID,0.738281,
2003-04-06, 02:45:00,VALID,916.169,VALID,0,VALID,98.4438,VALID,-0.0339617,VALID,18.4469,VALID,98,VALID,0.877604,
2003-04-06, 02:46:00,VALID,916.155,VALID,0,VALID,98.4413,VALID,-0.0509425,VALID,18.4402,VALID,99,VALID,1.08125,
2003-04-06, 02:47:00,VALID,916.138,VALID,0,VALID,98.3701,VALID,-0.0339617,VALID,18.4464,VALID,100,VALID,1.0654,
2003-04-06, 02:48:00,VALID,916.115,VALID,0,VALID,98.248,VALID,-0.0169808,VALID,18.4499,VALID,100,VALID,1.14503,
2003-04-06, 02:49:00,VALID,916.118,VALID,0,VALID,97.8805,VALID,0,VALID,18.4368,VALID,95,VALID,1.16875,
2003-04-06, 02:50:00,VALID,916.123,VALID,0,VALID,97.4927,VALID,-0.0169808,VALID,18.4469,VALID,87,VALID,0.868273,
2003-04-06, 02:51:00,VALID,916.101,VALID,0,VALID,97.0349,VALID,-0.0339617,VALID,18.4049,VALID,88,VALID,0.53125,
2003-04-06, 02:52:00,VALID,916.099,VALID,0,VALID,96.9153,VALID,0,VALID,18.3629,VALID,88,VALID,0.550223,
2003-04-06, 02:53:00,VALID,916.104,VALID,0,VALID,96.9904,VALID,-0.135847,VALID,18.3253,VALID,88,VALID,0.691071,
2003-04-06, 02:54:00,VALID,916.095,VALID,0,VALID,97.1341,VALID,-0.118866,VALID,18.2768,VALID,84,VALID,0.77524,
2003-04-06, 02:55:00,VALID,916.099,VALID,0,VALID,97.2917,VALID,-0.101885,VALID,18.2805,VALID,84,VALID,0.847991,
2003-04-06, 02:56:00,VALID,916.08,VALID,0,VALID,97.1239,VALID,-0.118866,VALID,18.2323,VALID,84,VALID,0.827257,
2003-04-06, 02:57:00,VALID,916.077,VALID,0,VALID,97.0133,VALID,-0.169808,VALID,18.1803,VALID,79,VALID,0.896835,
2003-04-06, 02:58:00,VALID,916.077,VALID,0,VALID,97.073,VALID,-0.101885,VALID,18.1478,VALID,78,VALID,1.03571,
2003-04-06, 02:59:00,VALID,916.08,VALID,0,VALID,97.0463,VALID,-0.118866,VALID,18.1542,VALID,75,VALID,1.10536,
2003-04-06, 03:00:00,VALID,916.075,VALID,0,VALID,96.9598,VALID,-0.101885,VALID,18.1805,VALID,74,VALID,1.05829,
2003-04-06, 03:01:00,VALID,916.089,VALID,0,VALID,96.909,VALID,-0.101885,VALID,18.2094,VALID,79,VALID,1.08929,
2003-04-06, 03:02:00,VALID,916.082,VALID,0,VALID,96.7971,VALID,-0.101885,VALID,18.235,VALID,92,VALID,1.19575,
2003-04-06, 03:03:00,VALID,916.085,VALID,0,VALID,96.4715,VALID,-0.118866,VALID,18.277,VALID,101,VALID,0.703926,
2003-04-06, 03:04:00,VALID,916.098,VALID,0,VALID,96.1028,VALID,-0.118866,VALID,18.3126,VALID,115,VALID,0.692187,
2003-04-06, 03:05:00,VALID,916.101,VALID,0,VALID,95.7811,VALID,-0.152827,VALID,18.3262,VALID,118,VALID,0.567411,
2003-04-06, 03:06:00,VALID,916.111,VALID,0,VALID,95.5128,VALID,-0.135847,VALID,18.3417,VALID,117,VALID,1.13121,
2003-04-06, 03:07:00,VALID,916.12,VALID,0,VALID,95.1834,VALID,-0.101885,VALID,18.3904,VALID,114,VALID,1.25067,
2003-04-06, 03:08:00,VALID,916.154,VALID,0,VALID,94.7053,VALID,-0.0169808,VALID,18.4345,VALID,110,VALID,1.25977,
2003-04-06, 03:09:00,VALID,916.155,VALID,0,VALID,94.4675,VALID,-0.0339617,VALID,18.5058,VALID,110,VALID,1.22496,
2003-04-06, 03:10:00,VALID,916.188,VALID,0,VALID,94.4357,VALID,0,VALID,18.5349,VALID,128,VALID,0.803795,
2003-04-06, 03:11:00,VALID,916.196,VALID,0,VALID,94.629,VALID,-0.0509425,VALID,18.5284,VALID,143,VALID,0.749554,
2003-04-06, 03:12:00,VALID,916.191,VALID,0,VALID,95.4708,VALID,-0.0339617,VALID,18.5055,VALID,136,VALID,0.792268,
2003-04-06, 03:13:00,VALID,916.186,VALID,0,VALID,96.2872,VALID,-0.0679233,VALID,18.5062,VALID,140,VALID,1.14375,
2003-04-06, 03:14:00,VALID,916.177,VALID,0,VALID,96.8047,VALID,-0.0679233,VALID,18.4931,VALID,133,VALID,1.19423,
2003-04-06, 03:15:00,VALID,916.172,VALID,0,VALID,96.9726,VALID,-0.0509425,VALID,18.4665,VALID,112,VALID,0.588942,
2003-04-06, 03:16:00,VALID,916.161,VALID,0,VALID,96.9573,VALID,-0.0679233,VALID,18.4248,VALID,117,VALID,0.955357,
2003-04-06, 03:17:00,VALID,916.148,VALID,0,VALID,96.9103,VALID,-0.0339617,VALID,18.3927,VALID,105,VALID,0.85558,
2003-04-06, 03:18:00,VALID,916.148,VALID,0,VALID,96.8759,VALID,-0.0509425,VALID,18.3373,VALID,101,VALID,0.79347,
2003-04-06, 03:19:00,VALID,916.152,VALID,0,VALID,96.942,VALID,-0.0509425,VALID,18.3082,VALID,116,VALID,0.83192,
2003-04-06, 03:20:00,VALID,916.159,VALID,0,VALID,96.9166,VALID,-0.0339617,VALID,18.302,VALID,115,VALID,1.16536,
2003-04-06, 03:21:00,VALID,916.166,VALID,0,VALID,96.7386,VALID,-0.0169808,VALID,18.3149,VALID,102,VALID,1.18229,
2003-04-06, 03:22:00,VALID,916.183,VALID,0,VALID,96.4461,VALID,-0.0509425,VALID,18.3407,VALID,100,VALID,1.1558,
2003-04-06, 03:23:00,VALID,916.188,VALID,0,VALID,96.0748,VALID,-0.0679233,VALID,18.3661,VALID,99,VALID,1.17656,
2003-04-06, 03:24:00,VALID,916.188,VALID,0,VALID,95.6959,VALID,-0.0679233,VALID,18.3924,VALID,91,VALID,1.2526,
2003-04-06, 03:25:00,VALID,916.189,VALID,0,VALID,95.2241,VALID,-0.0509425,VALID,18.3961,VALID,100,VALID,1.17991,
2003-04-06, 03:26:00,VALID,916.182,VALID,0,VALID,94.9075,VALID,0,VALID,18.3887,VALID,101,VALID,1.24848,
2003-04-06, 03:27:00,VALID,916.191,VALID,0,VALID,94.5743,VALID,0,VALID,18.4153,VALID,95,VALID,1.22055,
2003-04-06, 03:28:00,VALID,916.194,VALID,0,VALID,94.2437,VALID,-0.0679233,VALID,18.4474,VALID,89,VALID,1.13795,
2003-04-06, 03:29:00,VALID,916.2,VALID,0,VALID,93.9919,VALID,-0.0339617,VALID,18.4762,VALID,110,VALID,1.31496,
2003-04-06, 03:30:00,VALID,916.212,VALID,0,VALID,93.9983,VALID,-0.0169808,VALID,18.5152,VALID,104,VALID,1.48277,
2003-04-06, 03:31:00,VALID,916.196,VALID,0,VALID,94.0962,VALID,-0.0339617,VALID,18.5247,VALID,110,VALID,1.51116,
2003-04-06, 03:32:00,VALID,916.187,VALID,0,VALID,93.9449,VALID,-0.0339617,VALID,18.5212,VALID,108,VALID,1.54861,
2003-04-06, 03:33:00,VALID,916.19,VALID,0,VALID,93.8431,VALID,0,VALID,18.5533,VALID,96,VALID,1.42889,
2003-04-06, 03:34:00,VALID,916.193,VALID,0,VALID,93.9004,VALID,0,VALID,18.5796,VALID,114,VALID,1.37946,
2003-04-06, 03:35:00,VALID,916.196,VALID,0,VALID,93.9411,VALID,0,VALID,18.6087,VALID,112,VALID,1.43438,